Tracking 28790 objects as of 19-Apr-2024
HD Live streaming from Space Station
objects crossing your sky now

ORBCOMM FM 20

Track ORBCOMM FM 20 now!
10-day predictions
ORBCOMM FM 20 is classified as:


NORAD ID: 25416
Int'l Code: 1998-046D
Perigee: 780.9 km
Apogee: 782.8 km
Inclination: 45.0 °
Period: 100.3 minutes
Semi major axis: 7152 km
RCS: 0.613 m2 (medium)
Launch date: August 2, 1998
Source: ORBCOMM (ORB)
Launch site: Pegasus launched from Eastern Range Air Space (ERAS)
Your satellite tracking list
Your tracking list is empty




NASA's NSSDC Master Catalog

Two Line Element Set (TLE):
1 25416U 98046D   24110.15012093  .00003048  00000-0  11072-2 0  9992
2 25416  44.9953  26.1496 0001293 325.3719  34.7044 14.35101851343345
Source of the keplerian elements: AFSPC